JOURNAL #34

Folder Contents

Author's Full Portfolio

Title Comments Views Updated Posted
1 LOVE IS THE ANSWER 188 2010/10/11 10 years ago
2 'FRAID SO! 1 115 2010/10/12 10 years ago
3 CERTAIN ACCEPTABLE DRAMAS 113 2010/10/11 10 years ago
4 BECAUSE YOU ARE YOU 97 2010/10/12 10 years ago
5 UNQUENCHABLE 101 2010/10/11 10 years ago
6 THE GUESS 85 2010/10/11 10 years ago
7 AUTHENTICATION 101 2010/10/11 10 years ago
8 THROUGH DESIRE'S FOG 99 2010/10/12 10 years ago
9 GLORIOUS LANDSCAPES OBSERVED 102 2010/10/11 10 years ago
10 JUST BECAUSE (I WANT YOU SO! ) 111 2010/10/12 10 years ago
11 HOOD WINKED 132 2010/10/11 10 years ago
12 MEAL OF MOMENTS SPENT 144 2010/10/12 10 years ago
13 PUTRID'S FOLLY 144 2010/10/11 10 years ago
14 UNREVEALED 125 2010/10/11 10 years ago
15 BEAUTIFUL, MIGHTY ODETTA 124 2010/10/11 10 years ago
16 OF AN INTIMACY BORN, MUCH CLOSENESS WE SHARE 1 183 2010/10/11 10 years ago
17 THE LUNG LANGUAGE 99 2010/10/11 10 years ago
18 A NOT SO DISSIMILAR SEA 89 2010/10/11 10 years ago
19 IN DEFENSE OF 'MY TRASH' 2 120 2010/10/11 10 years ago
20 BASKINS OF DELIGHT 80 2010/10/11 10 years ago
21 TRUE BELIEF BESTOWED 91 2010/10/12 10 years ago
22 THE GEISHA HOUSE 85 2010/10/11 10 years ago
23 LIKE LYRIC OF SONG 93 2010/10/11 10 years ago
24 SOLDIERING AMERICANS 86 2010/10/11 10 years ago
25 SUCH RIVER OF TRUTH 89 2010/10/11 10 years ago
26 THE SWEETEST ABDUCTION IMAGINABLE 88 2010/10/11 10 years ago
27 THE SENSITIVE DAMP 90 2010/10/11 10 years ago
28 AN EMOTIONAL PAUPER 137 2010/10/11 10 years ago
29 THIN, BEAUTIFUL FLATTERY SKETCHED 196 2010/10/11 10 years ago
30 THE DECEPTIVE IRREVERENT 95 2010/10/12 10 years ago
31 ALMOST SORRY 97 2010/10/12 10 years ago
32 THE SOUL'S SILENT CALLING CARD 2 103 2010/10/11 10 years ago
33 FOR BUT A DRINK OF ONE KISS 2 89 2010/10/12 10 years ago
34 OUR WHISTLER IN THE STORM (OBAMA) 147 2010/10/11 10 years ago
35 OF FRIENDLY ROMANTIC THINGS 115 2010/10/11 10 years ago
36 COMPUNCTION'S STRATEGY 92 2010/10/12 11 years ago
37 AN EXPLANATION OF SORTS 116 2010/10/12 11 years ago
38 HE HAS CASTLES IN HIS EYES 1 115 2010/10/12 11 years ago
39 TWO PENNY BUM 91 2010/10/12 11 years ago
40 EMOTIONAL DECONSTRUCTION 107 2010/10/12 11 years ago
41 ONE RESTLESS SHARD (Larry Sprinkle Channel 36 News Charlotte) 2 251 2011/10/13 11 years ago
42 SOFTLY 118 2010/10/12 11 years ago
43 IT WAS ANGER , NOT YOU 164 2010/10/12 11 years ago
44 SMOKE AND BLUR 143 2010/10/12 11 years ago
45 THE EMPTINESS YAWNS 140 2010/10/12 11 years ago
46 AN IDEA OF WINE 144 2011/10/13 11 years ago
47 PATHS TAKEN, AND YET TAKEN 120 2011/10/13 11 years ago
48 AN ODE TO HER HUSBAND 1 129 2010/10/12 11 years ago
49 TWICE AMID THE SILENCE 138 2010/10/11 11 years ago
50 KNEEL IN THE WIND 115 2010/10/12 11 years ago
51 ACHING FOR ME 113 2010/10/12 11 years ago
52 LOVE TORN, LOVE MENDED 2 131 2010/10/12 11 years ago
53 MESSAGE RECEIVED 94 2010/10/12 11 years ago
54 LOVE'S FULLEST REACH 97 2010/10/12 11 years ago
55 OUR PAIN , OUR DELIGHT 122 2010/10/12 11 years ago
56 THIS PARTED US 109 2010/10/12 11 years ago
57 SUCH BEAUTIFUL HELL 100 2010/10/11 11 years ago
58 IN THE FLUSH OF DAYLIGHT'S CHARM 97 2010/10/12 11 years ago
59 MCCAIN; A LIBERAL'S FIRST IMPRESSION 94 2010/10/12 11 years ago
60 PRESSING THE VEIL 90 2010/10/12 11 years ago
61 ODE TO MY HANDSOME HURRICANE 130 2010/10/12 11 years ago
62 PHYSICAL CIRCUMSTANCE SET ASIDE 103 2010/10/12 11 years ago
63 EARLY SUMMER MORNING SURPRISE 123 2010/10/11 11 years ago
64 A MOMENT OF HOPE TO BE SAVORED (OBAMA) 128 2010/10/12 11 years ago
65 SCHOOL BUS DREAM 128 2010/10/11 11 years ago
66 CLEVER PREDATOR 131 2010/10/11 11 years ago
67 DRUDGERY 'S HELL 100 2010/10/11 11 years ago
68 THE PATHETIC TRUTH 89 2010/10/11 11 years ago
69 A TALL DARK ELM ( A TRIBUTE TO LANGSTON HUGHES) 97 2010/10/11 11 years ago
70 COLLECTING THE STORM STRANDS 97 2010/10/11 11 years ago
71 IN THE AFTER GLOW OF THE COUPLING (erotica) 81 2010/10/11 11 years ago
72 FROM THE ON SET, TRIBULATION 75 2010/10/12 11 years ago
73 JUST A LITTLE WHILE CLOSER 91 2010/10/11 11 years ago
74 UNANCHORED KNOWLEDGE 111 2010/10/11 11 years ago
75 THIS VIOLENCE SO WHITE 137 2010/10/11 11 years ago
76 THE QUICKENING 1 247 2010/10/11 11 years ago
77 STANDING UP FOR EACHOTHER NO MATTER WHAT OUR DIFFERENCES 2 311 2010/10/12 11 years ago
78 YOUR BEAUTIFUL DAY AND CONSEQUENT NIGHT 238 2010/10/12 11 years ago
79 SUCH EVERY DAY NOVELLAS 226 2010/10/12 11 years ago
80 THE PRESBYTERIAN CONCUBINE 257 2010/10/12 11 years ago
81 THE AGONY OF SPARE TIME 214 2010/10/12 11 years ago
82 THE WAR THAT SHOULD HAVE NEVER BEEN 1 117 2010/10/12 11 years ago
83 FRUSTRATION'S POINT 99 2010/10/11 11 years ago
84 THE CLAWS OF LONGING 88 2010/10/11 11 years ago
85 FOR YOUR PLEASURE, MY SOAKING(mild erotica) 2 124 2010/10/12 11 years ago
86 NEVER MORE 98 2010/10/11 11 years ago
87 THE LURING OF EVIL BACK INTO ITS PIT 2 124 2010/10/12 11 years ago
88 CONTEMPLATING THE NIGHT SKY 100 2010/10/12 11 years ago
89 ATTRACTION'S SHAKY ARITHMETIC 103 2010/10/12 11 years ago
90 MISCOMMUNICATION 86 2010/10/12 11 years ago
91 UNCONFUSED 95 2010/10/12 11 years ago
92 THE NEED BEARER 105 2010/10/11 11 years ago
93 BOMB BLASTS! 96 2011/10/13 11 years ago
94 SPIRITUAL INSUBORDINATION 86 2010/10/11 11 years ago
95 MINE CHALLENGE GALLOPS IN REALITY'S STEAD 79 2010/10/11 11 years ago
96 WHAT COULD YESTERDAY MEAN 85 2010/10/11 11 years ago
97 THE GLORY AND THE GRIND 92 2010/10/11 11 years ago
98 MINE ODE TO A HUMBLE WORD SMITH 136 2010/10/11 11 years ago
99 THE GENTLEMAN ROMANTIC 108 2010/10/11 11 years ago
100 MEANDERING THROUGH THE ROMANTICS 125 2010/10/11 11 years ago
101 FOR THY....................... 114 2010/10/11 11 years ago
102 THE WAY YOUR WORDS SPOKE TO ME 155 2010/10/11 11 years ago
103 THIS MORNING'S ME 79 2010/10/11 11 years ago
104 BETWEEN TWO WANTS 2 120 2010/10/11 11 years ago
105 THANK YOU, TRULY 90 2010/10/11 11 years ago
106 THE OTHER GAMES 79 2010/10/11 11 years ago
107 CONFESSIONS 102 2010/10/11 11 years ago
108 TO YOUR WAYWARD UNWORRIED WILL 85 2010/10/11 11 years ago
109 THE PAGEANTRY OF PUSSY 101 2010/10/11 11 years ago
110 TO OUR ABYSMAL IGNORANCE 82 2010/10/11 11 years ago